Location: Kielce
(50.8833°N, 20.6167°E)
Time: 22:22:24
(UTC+02:00)

SR - Pass Details

Date: 22 April 2021
Orbit: 573 x 882 km, 66.7° (Epoch: 09 May)

Event Time Altitude Azimuth Distance (km) Brightness Sun altitude
Rises 06:55:47 0° 184° (S) 3,317 ? 12.6°
Reaches altitude 10° 06:58:20 10° 176° (S) 2,430 ? 13.0°
Maximum altitude 07:03:22 34° 113° (ESE) 1,384 ? 13.8°
Drops below altitude 10° 07:08:38 10° 50° (NE) 2,542 ? 14.6°
Sets 07:11:21 0° 42° (NE) 3,491 ? 15.0°
